Location: Northern Prairie Star Party
(53.2167°N, 112.5333°W)
Time: 09:18:36
(UTC-06:00)

Amateur Radio Satellites - All Passes

Search period start: 23 October 2017 08:48
Search period end: 24 October 2017 08:48
Location: Northern Prairie Star Party, 53.2167°N, 112.5333°W

Satellite Date Start Highest point End Downlink Frequencies (MHz)
Time Altitude Azimuth
XW-2A 23 Oct 08:49:37 08:52:33 27° 96° (E) 08:55:27 145.665 - 145.685
RS-15 23 Oct 08:50:06 09:02:21 78° 41° (NE) 09:13:55 29.354- 29.394
TIGRISAT 23 Oct 08:53:09 08:56:25 19° 56° (NE) 08:59:41 435.000
XW-2C 23 Oct 08:58:06 09:01:05 23° 297° (WNW) 09:04:04 145.795 - 145.815
PCSat 23 Oct 08:58:56 09:04:14 58° 122° (ESE) 09:09:34 145.827
AO-73 23 Oct 08:59:51 09:03:07 20° 90° (E) 09:06:18 145.935
CUBEBUG 2 23 Oct 09:22:07 09:26:50 88° 285° (WNW) 09:31:21 437.445
ZACube-1 23 Oct 09:23:29 09:27:34 36° 96° (E) 09:31:30 437.345
CUTE 1.7 + AOD 2 23 Oct 09:23:51 09:27:57 52° 290° (WNW) 09:32:02 437.475
SEEDS 23 Oct 09:24:23 09:28:34 77° 286° (WNW) 09:32:44 437.485
CUTE-I 23 Oct 09:28:00 09:32:41 31° 301° (WNW) 09:37:21 437.470
AO-7 23 Oct 09:29:57 09:34:08 15° 340° (NNW) 09:38:19 .
NO-84 23 Oct 09:31:51 09:35:35 37° 216° (SW) 09:39:04 435.350 FM
KAITUO 1B 23 Oct 09:33:07 09:35:12 15° 302° (WNW) 09:37:17 145.475/437.950
AAUSAT CUBESAT 2 23 Oct 09:38:07 09:42:16 72° 104° (ESE) 09:46:23 437.432
XW-2F 23 Oct 09:41:36 09:42:37 11° 305° (NW) 09:43:38 145.980 - 146.000
NUDT-PHONESAT 23 Oct 09:42:05 09:43:43 13° 304° (WNW) 09:45:21 437.300
HO-68 23 Oct 09:47:31 09:54:40 65° 295° (WNW) 10:01:45 435.675
UWE-3 23 Oct 09:53:19 09:57:51 74° 288° (WNW) 10:02:15 435.000/436.395/437.385
YUBILEINY 23 Oct 09:53:44 10:02:13 62° 92° (E) 10:10:48 435.215
Oscar 11 23 Oct 09:54:15 09:58:24 44° 98° (E) 10:02:31 .
SO-50 23 Oct 10:03:13 10:07:00 26° 340° (NNW) 10:10:50 436.795
UNISAT 6 23 Oct 10:13:59 10:18:41 82° 75° (ENE) 10:23:26 437.425
PRISM 23 Oct 10:18:02 10:21:53 44° 67° (ENE) 10:25:47 437.425
XW-2A 23 Oct 10:22:22 10:25:13 26° 295° (WNW) 10:28:02 145.665 - 145.685
nSIGHT-1 23 Oct 10:26:20 10:28:50 21° 149° (SSE) 10:31:20 .
TIGRISAT 23 Oct 10:27:50 10:32:33 83° 257° (WSW) 10:37:18 435.000
FO-29 23 Oct 10:29:37 10:34:22 31° 269° (W) 10:39:35 435.910
EO-88 23 Oct 10:30:25 10:32:21 14° 89° (E) 10:34:16 145.990 - 145.960
EO-79 23 Oct 10:32:51 10:34:08 11° 51° (NE) 10:35:25 145.935-145.965
DELFI C3 23 Oct 10:35:08 10:38:36 28° 94° (E) 10:42:05 145.870
AO-73 23 Oct 10:35:25 10:39:44 57° 290° (WNW) 10:43:54 145.935
POLYITAN 1 23 Oct 10:38:00 10:39:46 12° 52° (NE) 10:41:33 437.675
PCSat 23 Oct 10:42:47 10:47:53 40° 324° (NW) 10:53:01 145.827
Max Valier Satellite 23 Oct 10:47:07 10:50:17 26° 94° (E) 10:53:25 145.860
QB50P2 23 Oct 10:57:06 11:00:03 18° 57° (ENE) 11:03:02 145.880/145.840
NANOSAT C BR1 23 Oct 10:57:14 10:59:49 16° 55° (NE) 11:02:24 145.865
CUBEBUG 2 23 Oct 10:59:51 11:02:46 17° 306° (NW) 11:05:38 437.445
ZACube-1 23 Oct 10:59:52 11:03:49 33° 296° (WNW) 11:07:40 437.345
SEEDS 23 Oct 11:01:40 11:03:33 13° 306° (NW) 11:05:27 437.485
RS-15 23 Oct 11:03:08 11:14:06 45° 248° (WSW) 11:24:34 29.354- 29.394
DUCHIFAT 1 23 Oct 11:05:50 11:08:33 17° 56° (NE) 11:11:17 145.980
ISS 23 Oct 11:07:14 11:10:11 32° 156° (SSE) 11:13:10 437.550
AAUSAT CUBESAT 2 23 Oct 11:14:32 11:17:15 17° 302° (WNW) 11:19:58 437.432
AIST 2D 23 Oct 11:16:32 11:19:51 42° 70° (ENE) 11:23:11 435.315
AO-7 23 Oct 11:20:35 11:23:34 12° 8° (N) 11:26:35 .
Oscar 11 23 Oct 11:30:44 11:34:23 27° 298° (WNW) 11:37:59 .
UWE-3 23 Oct 11:31:14 11:33:31 14° 308° (NW) 11:35:48 435.000/436.395/437.385
HO-68 23 Oct 11:36:09 11:41:12 21° 318° (NW) 11:46:14 435.675
SO-50 23 Oct 11:45:28 11:48:50 20° 4° (N) 11:52:14 436.795
YUBILEINY 23 Oct 11:51:24 11:59:31 42° 297° (WNW) 12:07:44 435.215
UNISAT 6 23 Oct 11:53:02 11:56:00 16° 273° (W) 11:58:59 437.425
PRISM 23 Oct 11:54:05 11:57:22 23° 267° (W) 12:00:41 437.425
nSIGHT-1 23 Oct 12:01:34 12:04:42 55° 168° (SSE) 12:07:51 .
EO-88 23 Oct 12:02:48 12:06:25 64° 287° (WNW) 12:10:00 145.990 - 145.960
Gurwin Techsat 1B 23 Oct 12:04:46 12:07:04 13° 45° (NE) 12:09:23 435.225
EO-79 23 Oct 12:04:50 12:09:03 61° 71° (ENE) 12:13:18 145.935-145.965
TIGRISAT 23 Oct 12:07:39 12:09:59 13° 275° (W) 12:12:19 435.000
BEESAT 3 23 Oct 12:09:34 12:12:57 27° 120° (ESE) 12:16:22 437.485
DELFI C3 23 Oct 12:09:47 12:13:25 35° 293° (WNW) 12:17:02 145.870
POLYITAN 1 23 Oct 12:10:31 12:14:47 68° 72° (ENE) 12:19:04 437.675
AO-73 23 Oct 12:14:00 12:15:02 11° 310° (NW) 12:16:03 145.935
Max Valier Satellite 23 Oct 12:20:50 12:24:09 32° 293° (WNW) 12:27:26 145.860
ESTCUBE 1 23 Oct 12:26:54 12:30:50 29° 94° (E) 12:34:45 437.505/2401.250
PCSat 23 Oct 12:28:43 12:32:43 20° 349° (NNW) 12:36:44 145.827
NANOSAT C BR1 23 Oct 12:30:40 12:34:56 87° 251° (WSW) 12:39:15 145.865
QB50P2 23 Oct 12:31:06 12:35:23 72° 257° (WSW) 12:39:42 145.880/145.840
BUGSAT 1 23 Oct 12:33:51 12:37:34 31° 64° (ENE) 12:41:20 437.445
DUCHIFAT 1 23 Oct 12:39:25 12:43:40 81° 254° (WSW) 12:47:59 145.980
LO-87 23 Oct 12:41:03 12:44:39 52° 100° (E) 12:48:12 145.935 - 145.965
Oscar 19 23 Oct 12:42:31 12:46:48 27° 58° (ENE) 12:51:05 437.125/150
ISS 23 Oct 12:43:10 12:46:24 66° 175° (S) 12:49:39 437.550
AIST 2D 23 Oct 12:50:43 12:53:14 18° 269° (W) 12:55:46 435.315
M-CUBED/EXP-1 PRIME 23 Oct 13:04:25 13:07:20 30° 60° (ENE) 13:10:15 437.505
AO-7 23 Oct 13:07:28 13:13:26 23° 35° (NE) 13:19:23 .
RS-15 23 Oct 13:21:18 13:22:52 10° 274° (W) 13:24:24 29.354- 29.394
SO-50 23 Oct 13:26:20 13:30:31 34° 28° (NNE) 13:34:44 436.795
VELOX 1 23 Oct 13:37:32 13:41:22 28° 94° (E) 13:45:12 145.980
nSIGHT-1 23 Oct 13:37:40 13:40:50 61° 189° (S) 13:44:01 .
BEESAT 2 23 Oct 13:37:52 13:41:49 55° 127° (SE) 13:45:49 435.950
Gurwin Techsat 1B 23 Oct 13:40:47 13:45:56 53° 66° (ENE) 13:51:07 435.225
EO-79 23 Oct 13:42:06 13:45:11 19° 270° (W) 13:48:18 145.935-145.965
AO-85 23 Oct 13:43:21 13:47:01 41° 125° (SE) 13:50:51 145.980
BEESAT 3 23 Oct 13:46:19 13:50:17 55° 320° (NW) 13:54:16 437.485
POLYITAN 1 23 Oct 13:48:10 13:51:01 17° 271° (W) 13:53:54 437.675
YUBILEINY 23 Oct 13:55:19 13:59:29 14° 326° (NW) 14:03:42 435.215
SPROUT 23 Oct 14:01:25 14:05:43 64° 102° (ESE) 14:09:59 437.525
ESTCUBE 1 23 Oct 14:03:33 14:07:47 42° 294° (WNW) 14:12:00 437.505/2401.250
50 SAT 23 Oct 14:06:05 14:07:55 14° 90° (E) 14:09:44 437.505
BUGSAT 1 23 Oct 14:08:55 14:12:51 37° 263° (W) 14:16:50 437.445
NANOSAT C BR1 23 Oct 14:09:29 14:11:19 12° 274° (W) 14:13:09 145.865
QB50P2 23 Oct 14:11:23 14:11:58 10° 276° (W) 14:12:34 145.880/145.840
PCSat 23 Oct 14:13:53 14:18:02 21° 15° (NNE) 14:22:10 145.827
LO-87 23 Oct 14:15:12 14:17:44 18° 299° (WNW) 14:20:15 145.935 - 145.965
DUCHIFAT 1 23 Oct 14:18:36 14:20:04 11° 275° (W) 14:21:32 145.980
ISS 23 Oct 14:19:33 14:22:44 50° 195° (SSW) 14:25:55 437.550
Oscar 19 23 Oct 14:20:43 14:25:49 61° 258° (WSW) 14:30:56 437.125/150
DX 1 23 Oct 14:32:33 14:36:15 26° 94° (E) 14:39:57 434.975-435.025
M-CUBED/EXP-1 PRIME 23 Oct 14:39:07 14:41:51 24° 258° (WSW) 14:44:33 437.505
UKube-1 23 Oct 14:49:06 14:52:42 25° 93° (E) 14:56:19 .
AO-7 23 Oct 14:56:38 15:04:42 60° 59° (ENE) 15:12:48 .
ITAMSAT 1 23 Oct 15:01:36 15:06:13 33° 60° (ENE) 15:10:52 435.822/435.867
SO-50 23 Oct 15:06:45 15:11:19 69° 230° (SW) 15:15:57 436.795
VELOX 1 23 Oct 15:13:45 15:17:59 44° 293° (WNW) 15:22:12 145.980
nSIGHT-1 23 Oct 15:14:03 15:16:48 26° 208° (SSW) 15:19:33 .
BEESAT 2 23 Oct 15:16:04 15:19:46 33° 329° (NNW) 15:23:30 435.950
Gurwin Techsat 1B 23 Oct 15:21:31 15:26:09 30° 266° (W) 15:30:50 435.225
AO-85 23 Oct 15:23:44 15:27:28 38° 327° (NNW) 15:31:23 145.980
BEESAT 3 23 Oct 15:25:36 15:28:37 20° 342° (NNW) 15:31:38 437.485
50 SAT 23 Oct 15:37:16 15:40:31 52° 289° (WNW) 15:43:44 437.505
SPROUT 23 Oct 15:38:02 15:41:13 20° 302° (WNW) 15:44:24 437.525
ITUPSAT 1 23 Oct 15:44:32 15:47:24 16° 87° (E) 15:50:16 437.325
ISS 23 Oct 15:56:26 15:58:43 18° 214° (SW) 16:01:01 437.550
BEESAT 23 Oct 15:57:06 16:00:38 20° 90° (E) 16:04:09 436.000
PCSat 23 Oct 15:57:29 16:02:45 46° 40° (NE) 16:07:58 145.827
DOVE 4 23 Oct 16:00:44 16:03:16 15° 53° (NE) 16:05:52 437.250
Oscar 19 23 Oct 16:05:11 16:06:13 11° 278° (W) 16:07:15 437.125/150
DX 1 23 Oct 16:08:26 16:12:38 45° 293° (WNW) 16:16:48 434.975-435.025
MOZHAYETS 4 23 Oct 16:17:20 16:21:29 33° 95° (E) 16:25:36
UKube-1 23 Oct 16:24:47 16:28:57 46° 293° (WNW) 16:33:06 .
CUBESAT XI-V 23 Oct 16:39:03 16:41:45 15° 87° (E) 16:44:27 437.345
ITAMSAT 1 23 Oct 16:40:30 16:45:33 49° 260° (W) 16:50:38 435.822/435.867
SO-50 23 Oct 16:48:53 16:51:00 13° 249° (WSW) 16:53:08 436.795
AO-7 23 Oct 16:49:58 16:57:47 44° 261° (W) 17:05:40 .
HO-68 23 Oct 16:51:19 16:55:32 17° 36° (NE) 16:59:45 435.675
BEESAT 2 23 Oct 16:55:54 16:58:36 17° 352° (N) 17:01:19 435.950
BEESAT 3 23 Oct 17:04:56 17:07:31 16° 6° (N) 17:10:04 437.485
AO-85 23 Oct 17:06:01 17:08:56 18° 351° (N) 17:11:58 145.980
KAITUO 1B 23 Oct 17:12:20 17:13:39 12° 55° (NE) 17:14:56 145.475/437.950
XW-2F 23 Oct 17:19:20 17:21:42 16° 59° (ENE) 17:24:04 145.980 - 146.000
NUDT-PHONESAT 23 Oct 17:19:48 17:21:32 13° 57° (ENE) 17:23:17 437.300
KKS-1 23 Oct 17:19:54 17:21:09 11° 84° (E) 17:22:24 437.445
ITUPSAT 1 23 Oct 17:21:04 17:25:55 88° 289° (WNW) 17:30:43 437.325
LilacSat-2 23 Oct 17:31:42 17:34:44 23° 63° (ENE) 17:37:46 437.200
XW-2D 23 Oct 17:33:56 17:36:58 23° 63° (ENE) 17:40:00 145.860 - 145.880
BEESAT 23 Oct 17:34:07 17:38:54 68° 289° (WNW) 17:43:38 436.000
DOVE 4 23 Oct 17:35:55 17:40:13 85° 76° (ENE) 17:44:49 437.250
CUTE-I 23 Oct 17:36:42 17:41:21 32° 59° (ENE) 17:46:02 437.470
PCSat 23 Oct 17:41:01 17:46:12 46° 241° (WSW) 17:51:21 145.827
XW-2B 23 Oct 17:47:11 17:50:29 29° 65° (ENE) 17:53:48 145.730 - 145.750
MOZHAYETS 4 23 Oct 17:54:27 17:58:43 39° 295° (WNW) 18:02:56
YUBILEINY 23 Oct 17:59:43 18:04:21 15° 36° (NE) 18:08:59 435.215
XW-2C 23 Oct 18:10:13 18:13:53 49° 70° (ENE) 18:17:34 145.795 - 145.815
CUBESAT XI-V 23 Oct 18:15:08 18:19:46 84° 283° (WNW) 18:24:23 437.345
BEESAT 2 23 Oct 18:34:43 18:37:43 19° 16° (NNE) 18:40:41 435.950
HO-68 23 Oct 18:34:54 18:41:44 50° 60° (ENE) 18:48:36 435.675
BEESAT 3 23 Oct 18:42:39 18:46:13 29° 29° (NNE) 18:49:44 437.485
KAITUO 1B 23 Oct 18:43:17 18:47:00 83° 75° (ENE) 18:50:44 145.475/437.950
CUTE 1.7 + AOD 2 23 Oct 18:46:46 18:50:32 32° 65° (ENE) 18:54:19 437.475
SEEDS 23 Oct 18:47:05 18:50:22 23° 61° (ENE) 18:53:40 437.485
AO-85 23 Oct 18:47:30 18:50:44 21° 16° (NNE) 18:54:08 145.980
CUBEBUG 2 23 Oct 18:49:59 18:53:56 27° 61° (ENE) 18:57:55 437.445
NUDT-PHONESAT 23 Oct 18:51:07 18:54:51 85° 261° (W) 18:58:35 437.300
XW-2F 23 Oct 18:51:39 18:55:24 65° 259° (W) 18:59:09 145.980 - 146.000
ZACube-1 23 Oct 18:51:51 18:53:33 12° 51° (NE) 18:55:14 437.345
KKS-1 23 Oct 18:54:01 18:58:32 73° 103° (ESE) 19:03:01 437.445
ITUPSAT 1 23 Oct 18:59:57 19:03:07 18° 307° (NW) 19:06:14 437.325
AAUSAT CUBESAT 2 23 Oct 19:00:22 19:02:53 16° 57° (ENE) 19:05:25 437.432
LilacSat-2 23 Oct 19:05:10 19:08:49 42° 262° (W) 19:12:27 437.200
XW-2D 23 Oct 19:07:22 19:10:57 41° 262° (W) 19:14:34 145.860 - 145.880
BEESAT 23 Oct 19:13:21 19:15:51 14° 310° (NW) 19:18:21 436.000
CUTE-I 23 Oct 19:15:59 19:21:12 54° 260° (W) 19:26:27 437.470
STARS 23 Oct 19:16:03 19:20:26 54° 101° (E) 19:24:47 437.465
DOVE 4 23 Oct 19:16:21 19:18:40 14° 275° (W) 19:21:03 437.250
UWE-3 23 Oct 19:19:58 19:24:01 30° 63° (ENE) 19:28:04 435.000/436.395/437.385
XW-2B 23 Oct 19:21:13 19:24:38 31° 264° (W) 19:28:03 145.730 - 145.750
Oscar 11 23 Oct 19:21:30 19:23:28 13° 53° (NE) 19:25:27 .
XW-2A 23 Oct 19:26:20 19:29:15 27° 66° (ENE) 19:32:09 145.665 - 145.685
XW-2C 23 Oct 19:45:37 19:48:20 19° 269° (W) 19:51:05 145.795 - 145.815
CUBESAT XI-V 23 Oct 19:53:44 19:56:29 16° 306° (NW) 19:59:14 437.345
YUBILEINY 23 Oct 19:55:47 20:04:09 45° 65° (ENE) 20:12:30 435.215
AO-73 23 Oct 20:00:28 20:04:36 35° 65° (ENE) 20:08:42 145.935
BEESAT 2 23 Oct 20:12:20 20:16:19 48° 38° (NE) 20:20:14 435.950
BEESAT 3 23 Oct 20:20:06 20:24:05 65° 230° (SW) 20:27:58 437.485
KAITUO 1B 23 Oct 20:20:18 20:21:32 11° 273° (W) 20:22:46 145.475/437.950
SEEDS 23 Oct 20:21:44 20:25:48 51° 261° (W) 20:29:53 437.485
CUTE 1.7 + AOD 2 23 Oct 20:22:30 20:26:21 34° 264° (W) 20:30:14 437.475
HO-68 23 Oct 20:22:40 20:29:33 47° 261° (W) 20:36:29 435.675
ZACube-1 23 Oct 20:24:27 20:28:58 60° 71° (ENE) 20:33:28 437.345
CUBEBUG 2 23 Oct 20:25:38 20:30:16 54° 260° (W) 20:34:59 437.445
AO-85 23 Oct 20:27:46 20:32:01 50° 38° (NE) 20:36:37 145.980
KKS-1 23 Oct 20:31:24 20:34:38 20° 304° (WNW) 20:37:52 437.445
AAUSAT CUBESAT 2 23 Oct 20:33:43 20:37:49 79° 256° (WSW) 20:41:57 437.432
STRAND 1 23 Oct 20:36:53 20:41:45 39° 97° (E) 20:46:33 437.568
STARS 23 Oct 20:52:54 20:56:30 25° 300° (WNW) 21:00:06 437.465
O/OREOS (USA 219) 23 Oct 20:53:38 20:57:57 43° 111° (ESE) 21:02:19 437.305
Oscar 11 23 Oct 20:54:33 20:58:53 73° 73° (ENE) 21:03:13 .
UWE-3 23 Oct 20:55:48 21:00:18 46° 262° (W) 21:04:49 435.000/436.395/437.385
XW-2A 23 Oct 20:58:57 21:01:55 27° 264° (W) 21:04:55 145.665 - 145.685
EO-88 23 Oct 21:13:46 21:16:08 17° 60° (ENE) 21:18:33 145.990 - 145.960
DELFI C3 23 Oct 21:25:57 21:29:34 37° 67° (ENE) 21:33:13 145.870
FO-29 23 Oct 21:29:22 21:35:32 33° 92° (E) 21:42:12 435.910
Max Valier Satellite 23 Oct 21:31:27 21:34:46 31° 66° (ENE) 21:38:05 145.860
AO-73 23 Oct 21:36:34 21:40:48 37° 264° (W) 21:45:02 145.935
BEESAT 2 23 Oct 21:50:18 21:53:55 31° 239° (WSW) 21:57:28 435.950
YUBILEINY 23 Oct 21:52:45 22:01:19 58° 269° (W) 22:09:52 435.215
ESTCUBE 1 23 Oct 21:59:19 22:00:29 11° 49° (NE) 22:01:39 437.505/2401.250
BEESAT 3 23 Oct 22:00:17 22:00:49 10° 250° (WSW) 22:01:22 437.485
UNISAT 6 23 Oct 22:01:18 22:03:11 12° 84° (E) 22:05:01 437.425
ZACube-1 23 Oct 22:02:05 22:05:36 21° 270° (W) 22:09:07 437.345
AO-85 23 Oct 22:08:16 22:12:23 36° 237° (WSW) 22:16:47 145.980
AAUSAT CUBESAT 2 23 Oct 22:13:14 22:14:01 10° 276° (W) 22:14:47 437.432
TIGRISAT 23 Oct 22:14:23 22:17:02 15° 86° (E) 22:19:37 435.000
STRAND 1 23 Oct 22:16:09 22:20:57 40° 297° (WNW) 22:25:43 437.568
Oscar 11 23 Oct 22:32:46 22:35:31 16° 272° (W) 22:38:17 .
O/OREOS (USA 219) 23 Oct 22:33:16 22:37:29 35° 312° (NW) 22:41:44 437.305
EO-88 23 Oct 22:45:50 22:49:26 58° 259° (W) 22:53:03 145.990 - 145.960
DELFI C3 23 Oct 23:01:07 23:04:25 26° 266° (W) 23:07:46 145.870
Max Valier Satellite 23 Oct 23:05:19 23:08:35 29° 265° (W) 23:11:53 145.860
VELOX 1 23 Oct 23:08:29 23:09:03 10° 48° (NE) 23:09:35 145.980
FO-29 23 Oct 23:14:12 23:20:59 70° 291° (WNW) 23:28:30 435.910
LO-87 23 Oct 23:22:25 23:25:57 55° 72° (ENE) 23:29:33 145.935 - 145.965
RS-15 23 Oct 23:24:39 23:33:06 22° 97° (E) 23:41:31 29.354- 29.394
SPROUT 23 Oct 23:26:21 23:29:09 17° 56° (NE) 23:31:59 437.525
PRISM 23 Oct 23:28:02 23:31:44 30° 96° (E) 23:35:23 437.425
ESTCUBE 1 23 Oct 23:31:59 23:36:22 55° 69° (ENE) 23:40:46 437.505/2401.250
UNISAT 6 23 Oct 23:36:03 23:40:43 79° 104° (ESE) 23:45:14 437.425
TIGRISAT 23 Oct 23:49:44 23:54:24 86° 284° (WNW) 23:58:54 435.000
YUBILEINY 23 Oct 23:51:44 23:56:07 15° 293° (WNW) 00:00:32 435.215
AIST 2D 24 Oct 00:08:29 00:11:17 22° 93° (E) 00:14:03 435.315
QB50P2 24 Oct 00:11:11 00:13:08 13° 86° (E) 00:15:06 145.880/145.840
NANOSAT C BR1 24 Oct 00:11:22 00:11:59 10° 84° (E) 00:12:35 145.865
O/OREOS (USA 219) 24 Oct 00:16:47 00:18:20 11° 335° (NNW) 00:19:51 437.305
DUCHIFAT 1 24 Oct 00:19:16 00:20:27 11° 85° (E) 00:21:37 145.980
VELOX 1 24 Oct 00:40:16 00:44:32 52° 68° (ENE) 00:48:51 145.980
50 SAT 24 Oct 00:40:32 00:42:23 14° 59° (ENE) 00:44:15 437.505
LO-87 24 Oct 00:57:25 00:59:42 16° 270° (W) 01:02:00 145.935 - 145.965
SPROUT 24 Oct 01:00:14 01:04:31 79° 255° (WSW) 01:08:52 437.525
FO-29 24 Oct 01:00:18 01:05:08 21° 311° (NW) 01:10:16 435.910
PRISM 24 Oct 01:03:15 01:07:03 36° 295° (WNW) 01:10:50 437.425
ESTCUBE 1 24 Oct 01:09:58 01:13:29 22° 268° (W) 01:17:02 437.505/2401.250
UNISAT 6 24 Oct 01:13:39 01:16:53 19° 304° (NW) 01:20:03 437.425
EO-79 24 Oct 01:18:47 01:22:56 47° 99° (E) 01:27:02 145.935-145.965
POLYITAN 1 24 Oct 01:24:42 01:28:54 53° 100° (E) 01:33:03 437.675
TIGRISAT 24 Oct 01:27:34 01:30:25 16° 306° (NW) 01:33:12 435.000
RS-15 24 Oct 01:31:08 01:43:16 67° 122° (ESE) 01:55:18 29.354- 29.394
DX 1 24 Oct 01:33:34 01:37:44 49° 68° (ENE) 01:41:57 434.975-435.025
BEESAT 24 Oct 01:36:09 01:36:50 10° 45° (NE) 01:37:30 436.000
AIST 2D 24 Oct 01:41:22 01:44:33 34° 292° (WNW) 01:47:43 435.315
NANOSAT C BR1 24 Oct 01:44:12 01:48:29 74° 103° (ESE) 01:52:43 145.865
BUGSAT 1 24 Oct 01:44:28 01:47:45 21° 91° (E) 01:51:00 437.445
QB50P2 24 Oct 01:45:17 01:49:35 90° 30° (NNE) 01:53:51 145.880/145.840
UKube-1 24 Oct 01:48:59 01:53:06 46° 67° (ENE) 01:57:15 .
MOZHAYETS 4 24 Oct 01:50:59 01:53:00 13° 51° (NE) 01:55:03
Gurwin Techsat 1B 24 Oct 01:52:19 01:54:33 12° 83° (E) 01:56:46 435.225
DUCHIFAT 1 24 Oct 01:52:35 01:56:51 79° 104° (ESE) 02:01:04 145.980
50 SAT 24 Oct 02:11:05 02:14:18 57° 258° (WSW) 02:17:33 437.505
VELOX 1 24 Oct 02:17:46 02:21:17 23° 268° (W) 02:24:49 145.980
Oscar 19 24 Oct 02:26:00 02:30:30 30° 94° (E) 02:34:58 437.125/150
NO-84 24 Oct 02:28:51 02:31:26 16° 132° (SE) 02:34:01 435.350 FM
SPROUT 24 Oct 02:39:47 02:41:10 11° 275° (W) 02:42:33 437.525
EO-79 24 Oct 02:54:58 02:58:29 25° 299° (WNW) 03:01:59 145.935-145.965
AO-7 24 Oct 02:55:31 02:56:19 10° 76° (ENE) 02:57:07 .
ITUPSAT 1 24 Oct 02:56:30 03:00:54 37° 63° (ENE) 03:05:19 437.325
POLYITAN 1 24 Oct 03:01:00 03:04:23 23° 300° (WNW) 03:07:44 437.675
BEESAT 24 Oct 03:08:56 03:13:31 46° 66° (ENE) 03:18:06 436.000
DX 1 24 Oct 03:10:39 03:14:10 24° 267° (W) 03:17:43 434.975-435.025
BUGSAT 1 24 Oct 03:19:16 03:23:24 52° 291° (WNW) 03:27:28 437.445
NANOSAT C BR1 24 Oct 03:20:50 03:23:43 18° 303° (WNW) 03:26:35 145.865
QB50P2 24 Oct 03:22:16 03:24:47 15° 305° (NW) 03:27:16 145.880/145.840
MOZHAYETS 4 24 Oct 03:24:44 03:29:19 64° 71° (ENE) 03:33:56
UKube-1 24 Oct 03:25:46 03:29:20 25° 267° (W) 03:32:55 .
DUCHIFAT 1 24 Oct 03:29:15 03:32:00 17° 304° (NW) 03:34:44 145.980
Gurwin Techsat 1B 24 Oct 03:30:11 03:35:32 68° 103° (ESE) 03:40:50 435.225
O/OREOS (USA 219) 24 Oct 03:39:42 03:41:48 13° 28° (NNE) 03:43:54 437.305
M-CUBED/EXP-1 PRIME 24 Oct 03:43:52 03:47:25 67° 110° (ESE) 03:51:13 437.505
RS-15 24 Oct 03:43:59 03:56:16 62° 331° (NNW) 04:08:17 29.354- 29.394
CUBESAT XI-V 24 Oct 03:47:43 03:51:44 30° 62° (ENE) 03:55:45 437.345
NO-84 24 Oct 04:04:00 04:08:12 54° 150° (SSE) 04:12:19 435.350 FM
Oscar 19 24 Oct 04:05:06 04:10:04 50° 294° (WNW) 04:15:00 437.125/150
KKS-1 24 Oct 04:22:33 04:26:03 23° 59° (ENE) 04:29:36 437.445
ITUPSAT 1 24 Oct 04:34:14 04:38:44 38° 263° (W) 04:43:15 437.325
AO-7 24 Oct 04:43:31 04:51:28 46° 100° (E) 04:59:23 .
STARS 24 Oct 04:43:54 04:46:52 18° 55° (NE) 04:49:51 437.465
ITAMSAT 1 24 Oct 04:46:46 04:51:38 37° 97° (E) 04:56:28 435.822/435.867
BEESAT 24 Oct 04:47:15 04:51:28 30° 265° (W) 04:55:41 436.000
MOZHAYETS 4 24 Oct 05:03:28 05:06:54 20° 270° (W) 05:10:22
Gurwin Techsat 1B 24 Oct 05:10:45 05:15:04 26° 304° (WNW) 05:19:23 435.225
O/OREOS (USA 219) 24 Oct 05:18:05 05:22:30 42° 51° (NE) 05:26:52 437.305
M-CUBED/EXP-1 PRIME 24 Oct 05:19:14 05:21:33 17° 307° (NW) 05:23:56 437.505
CUBESAT XI-V 24 Oct 05:24:35 05:28:59 43° 262° (W) 05:33:24 437.345
DOVE 4 24 Oct 05:28:27 05:31:52 18° 87° (E) 05:35:22 437.250
NO-84 24 Oct 05:41:20 05:45:38 73° 351° (N) 05:49:44 435.350 FM
Oscar 19 24 Oct 05:46:26 05:48:19 12° 315° (NW) 05:50:11 437.125/150
KKS-1 24 Oct 05:57:55 06:02:18 58° 258° (WSW) 06:06:44 437.445
RS-15 24 Oct 05:59:28 06:11:19 49° 3° (N) 06:22:43 29.354- 29.394
STARS 24 Oct 06:18:15 06:22:40 80° 254° (WSW) 06:27:08 437.465
STRAND 1 24 Oct 06:21:33 06:25:21 21° 54° (NE) 06:29:11 437.568
ITAMSAT 1 24 Oct 06:26:14 06:31:11 43° 297° (WNW) 06:36:06 435.822/435.867
LilacSat-2 24 Oct 06:33:00 06:35:04 14° 88° (E) 06:37:07 437.200
XW-2D 24 Oct 06:34:27 06:36:28 14° 88° (E) 06:38:29 145.860 - 145.880
AO-7 24 Oct 06:36:25 06:44:30 57° 302° (WNW) 06:52:33 .
XW-2B 24 Oct 06:47:36 06:50:14 18° 91° (E) 06:52:51 145.730 - 145.750
O/OREOS (USA 219) 24 Oct 06:57:41 07:01:51 34° 252° (WSW) 07:05:59 437.305
DOVE 4 24 Oct 07:05:06 07:10:07 85° 286° (WNW) 07:15:21 437.250
SO-50 24 Oct 07:06:31 07:10:47 44° 125° (SE) 07:15:05 436.795
XW-2C 24 Oct 07:10:37 07:13:59 30° 96° (E) 07:17:19 145.795 - 145.815
NO-84 24 Oct 07:19:04 07:23:17 76° 12° (NNE) 07:27:14 435.350 FM
CUTE-I 24 Oct 07:26:24 07:31:27 39° 97° (E) 07:36:27 437.470
KAITUO 1B 24 Oct 07:41:58 07:45:34 48° 100° (E) 07:49:08 145.475/437.950
HO-68 24 Oct 07:43:15 07:49:18 28° 90° (E) 07:55:18 435.675
NUDT-PHONESAT 24 Oct 07:48:46 07:52:23 54° 101° (E) 07:55:58 437.300
FO-29 24 Oct 07:49:53 07:54:21 26° 52° (NE) 07:59:12 435.910
XW-2F 24 Oct 07:51:20 07:55:05 76° 103° (ESE) 07:58:48 145.980 - 146.000
STARS 24 Oct 07:58:04 07:59:46 12° 275° (W) 08:01:28 437.465
STRAND 1 24 Oct 07:58:50 08:03:59 83° 255° (WSW) 08:09:12 437.568
SEEDS 24 Oct 07:59:41 08:02:34 18° 89° (E) 08:05:27 437.485
CUTE 1.7 + AOD 2 24 Oct 08:00:43 08:04:20 27° 94° (E) 08:07:55 437.475
LilacSat-2 24 Oct 08:06:01 08:09:47 67° 287° (WNW) 08:13:31 437.200
XW-2D 24 Oct 08:07:21 08:11:06 67° 287° (WNW) 08:14:48 145.860 - 145.880
ITAMSAT 1 24 Oct 08:08:14 08:09:25 11° 318° (NW) 08:10:35 435.822/435.867
CUBEBUG 2 24 Oct 08:10:37 08:14:20 23° 90° (E) 08:17:57 437.445
AAUSAT CUBESAT 2 24 Oct 08:11:22 08:12:40 11° 85° (E) 08:13:59 437.432
RS-15 24 Oct 08:13:53 08:26:05 69° 35° (NE) 08:37:38 29.354- 29.394
XW-2A 24 Oct 08:15:14 08:16:36 12° 88° (E) 08:17:57 145.665 - 145.685
XW-2B 24 Oct 08:21:03 08:24:42 50° 290° (WNW) 08:28:20 145.730 - 145.750
PCSat 24 Oct 08:28:17 08:33:25 45° 118° (ESE) 08:38:34 145.827
AO-7 24 Oct 08:29:51 08:35:43 22° 326° (NW) 08:41:35 .
UWE-3 24 Oct 08:39:22 08:43:08 25° 92° (E) 08:46:46 435.000/436.395/437.385
